User: anonymous   Login
Location: Caltech
(34.1382°N, 118.1253°W)
Time: 01:12:58
(UTC-07:00)
Language:

Iridium 70 - Orbit

View from above orbital plane
View from above orbital plane
View from above satellite
View from above satellite

Ground track
Ground track

The orbit data is extracted from the following two-line orbital elements,

1 25342U 98032A   14304.97217222  .00000353  00000-0  11886-3 0   227
2 25342 086.3957 265.1112 0002012 100.9584 321.9885 14.34216068861619
Epoch (UTC): 31 October 2014 23:19:55
Eccentricity: 0.0002012
inclination: 86.3957°
perigee height: 776 km
apogee height: 779 km
right ascension of ascending node: 265.1112°
argument of perigee: 100.9584°
revolutions per day: 14.34216068
mean anomaly at epoch: 321.9885°
orbit number at epoch: 86161

The dashed part of the orbit path shows where the satellite is in the earth's shadow,  

DLR